Location: Newark
(25.4800°N, 85.7200°E)
Time: 07:20:37
(UTC+00:00)

Explorer 11/Cluster Stage 4 - Pass Details

Date: 28 August 2019
Orbit: 467 x 1260 km, 28.8° (Epoch: 19 September)

Event Time Altitude Azimuth Distance (km) Brightness Sun altitude
Rises 01:43:59 0° 242° (WSW) 3,447 9.4 23.4°
Reaches altitude 10° 01:46:22 10° 239° (WSW) 2,623 8.9 24.0°
Maximum altitude 01:52:49 67° 158° (SSE) 1,155 8.0 25.4°
Drops below altitude 10° 02:00:35 10° 78° (ENE) 3,130 11.2 27.2°
Sets 02:03:39 0° 76° (ENE) 4,153 11.4 27.9°
